Location: Unspecified
(0.0000°N, 0.0000°E)
Time: 17:52:00
(UTC+01:00)

Cosmos 1626 Rocket - Visible Passes

Search period start: 28 November 2014 00:00
Search period end: 08 December 2014 00:00
Orbit: 604 x 633 km, 82.5° (Epoch: 27 November)

Date Brightness Start Highest point End Pass type
(mag) Time Alt. Az. Time Alt. Az. Time Alt. Az.
28 Nov 7.1 06:08:37 10° E 06:08:55 10° E 06:09:14 10° E visible
28 Nov 6.4 19:51:58 10° SW 19:55:09 19° W 19:58:19 10° NW visible
02 Dec 6.8 05:38:55 10° ENE 05:39:58 11° E 05:41:01 10° E visible
02 Dec 6.5 19:23:09 10° SW 19:26:12 18° W 19:29:15 10° NW visible
03 Dec 5.9 05:53:35 10° NNE 05:57:06 25° E 06:00:39 10° SE visible
04 Dec 4.2 06:10:01 10° N 06:14:15 58° E 06:18:30 10° SSE visible
06 Dec 6.6 05:09:32 10° ENE 05:10:59 12° E 05:12:27 10° ESE visible
07 Dec 5.7 05:24:31 10° NNE 05:28:07 26° E 05:31:45 10° SE visible
